Waarnemingen

Advertentie
Mijn weer
Lille, Frankrijk (7015): temperatuur & dauwpunt: 09.10.2019 21:00:00 - 15.10.2019 21:00:00 (CEST)Lille, Frankrijk (7015): temperatuur 5cm: 09.10.2019 21:00:00 - 15.10.2019 21:00:00 (CEST)Lille, Frankrijk (7015): temperatuur -20cm & temperatuur -100cm: 09.10.2019 21:00:00 - 15.10.2019 21:00:00 (CEST)Lille, Frankrijk (7015): windsnelheid & windstoten: 09.10.2019 21:00:00 - 15.10.2019 21:00:00 (CEST)Lille, Frankrijk (7015): windrichting: 09.10.2019 21:00:00 - 15.10.2019 21:00:00 (CEST)Lille, Frankrijk (7015): luchtdruk: 09.10.2019 21:00:00 - 15.10.2019 21:00:00 (CEST)Lille, Frankrijk (7015): zicht: 09.10.2019 21:00:00 - 15.10.2019 21:00:00 (CEST)Lille, Frankrijk (7015): neerslag: 09.10.2019 21:00:00 - 15.10.2019 21:00:00 (CEST)
Datum & Tijd tt [°C] td [°C] tt 5cm [°C] tt -20cm [°C] tt -100cm [°C] ff [km/u] ff [kn] fx [km/u] fx [kn] dd ppp [hPa] vv [km] rr [mm]
15.10.2019 21:00:00 12,8 10,0 11,5 14,7 15,3 12 7 19 10 Z 1008,1 51 0,0
15.10.2019 20:00:00 12,8 9,6 11,9 15,0 15,3 8 5 16 9 Z 1007,8 47 0,0
15.10.2019 19:00:00 13,7 9,7 13,1 15,1 15,3 10 5 34 19 ZZW 1007,4 60 0,0
15.10.2019 18:00:00 14,9 9,0 15,0 15,2 15,3 16 8 27 15 ZZW 1006,7 50 0,0
15.10.2019 17:00:00 15,2 10,0 15,6 15,3 15,3 17 9 36 19 ZZW 1006,5 56 0,0
15.10.2019 16:00:00 15,6 9,9 15,3 15,3 15,3 19 10 30 16 ZW 1006,5 27 0,0
15.10.2019 15:00:00 15,7 11,1 15,7 15,2 15,3 16 9 30 16 Z 1006,2 45 0,0
15.10.2019 14:00:00 15,4 11,4 15,9 15,1 15,2 19 10 28 15 ZZW 1006,2 47 0,0
15.10.2019 13:00:00 15,3 11,3 15,8 15,0 15,2 17 9 30 16 ZZW 1006,4 53 0,0
15.10.2019 12:00:00 14,9 12,0 15,3 14,8 15,2 18 10 30 16 ZZW 1006,4 40 0,0
15.10.2019 11:00:00 14,4 12,4 14,5 14,8 15,2 18 10 26 14 Z 1006,2 42 0,0
15.10.2019 10:00:00 13,9 12,3 13,7 14,8 15,3 11 6 17 9 Z 1005,8 48 0,0
15.10.2019 09:00:00 13,7 12,3 13,6 14,8 15,2 11 6 18 10 Z 1005,8 54 0,0
15.10.2019 08:00:00 13,8 12,4 13,6 15,0 15,2 11 6 23 13 Z 1005,4 53 0,0
15.10.2019 07:00:00 13,9 12,6 13,7 15,0 15,2 13 7 22 12 Z 1005,2 59 0,0
15.10.2019 06:00:00 14,2 13,1 13,7 15,1 15,2 11 6 19 10 Z 1004,9 49 0,0
15.10.2019 05:00:00 14,3 13,0 13,8 15,2 15,2 11 6 27 15 ZZO 1004,9 52 0,0
15.10.2019 04:00:00 14,7 13,4 14,4 15,3 15,2 14 8 23 12 Z 1005,3 57 0,0
15.10.2019 03:00:00 15,0 13,4 14,3 15,4 15,2 13 7 29 15 Z 1005,3 59 0,0
15.10.2019 02:00:00 15,4 13,4 14,6 15,5 15,2 17 9 34 18 ZZW 1004,7 39 0,0
15.10.2019 01:00:00 15,9 13,4 14,8 15,6 15,2 23 13 40 21 Z 1005,3 28 0,2
15.10.2019 00:00:00 16,5 12,6 16,0 15,7 15,2 22 12 39 21 Z 1005,2 60 0,0
14.10.2019 23:00:00 16,4 12,9 15,7 15,9 15,2 14 8 24 13 Z 1004,3 59 0,0
14.10.2019 22:00:00 16,3 13,2 15,3 16,1 15,2 11 6 55 30 Z 1004,5 60 0,0
14.10.2019 21:00:00 20,1 14,7 17,4 16,2 15,2 24 13 61 33 Z 1005,8 20 0,2
14.10.2019 20:00:00 19,9 14,7 18,9 16,3 15,2 17 9 30 16 ZO 1004,0 39 0,0
14.10.2019 19:00:00 19,4 14,9 18,8 16,3 15,2 15 8 27 14 ZO 1004,2 32 0,0
14.10.2019 18:00:00 20,8 15,3 20,6 16,3 15,2 17 9 31 17 ZO 1004,0 17 0,0
14.10.2019 17:00:00 21,1 15,2 21,1 16,2 15,2 19 10 33 18 ZO 1004,3 19 0,0
14.10.2019 16:00:00 20,4 15,0 21,0 16,0 15,2 18 10 37 20 ZO 1005,6 49 0,0
14.10.2019 15:00:00 20,5 14,8 21,2 15,6 15,2 19 10 31 17 ZZO 1006,6 45 0,0
14.10.2019 14:00:00 19,4 14,0 20,2 15,3 15,2 19 10 36 20 ZZO 1007,0 55 0,0
14.10.2019 13:00:00 19,2 15,3 18,7 14,9 15,2 18 10 34 19 ZO 1007,7 29 0,0
14.10.2019 12:00:00 17,6 14,3 18,4 14,6 15,2 15 8 31 17 ZO 1008,6 20 0,0
14.10.2019 11:00:00 15,8 13,6 14,3 14,3 15,2 14 7 29 16 O 1009,5 20 0,0
14.10.2019 10:00:00 13,9 12,8 13,2 14,3 15,2 21 11 29 15 ONO 1009,8 16 0,0
14.10.2019 09:00:00 13,2 12,7 12,6 14,3 15,2 10 6 21 11 NNO 1010,6 15 0,0
14.10.2019 08:00:00 12,9 12,6 12,2 14,3 15,2 10 6 16 8 ONO 1010,8 19 0,0
14.10.2019 07:00:00 12,5 12,2 11,9 14,4 15,2 8 5 13 7 O 1011,5 6 0,0
14.10.2019 06:00:00 12,4 12,1 11,5 14,6 15,2 3 1 9 5 O 1012,4 1,7 0,0
14.10.2019 05:00:00 12,3 12,0 11,7 14,7 15,2 8 4 10 6 ZO 1012,5 0,6 0,0
14.10.2019 04:00:00 13,0 12,5 11,7 14,8 15,2 4 2 6 3 O 1012,5 0,7 0,0
14.10.2019 03:00:00 13,5 12,6 12,4 15,0 15,2 0 0 10 5 N 1012,8 33 0,2
14.10.2019 02:00:00 14,0 12,9 13,5 15,1 15,2 9 5 14 8 ZW 1013,7 27 0,0
14.10.2019 01:00:00 14,0 12,9 13,5 15,2 15,2 7 4 17 9 ZZW 1013,2 53 0,0
14.10.2019 00:00:00 14,1 13,0 13,5 15,4 15,2 10 5 16 8 Z 1012,6 60 0,0
13.10.2019 23:00:00 14,4 12,9 13,7 15,6 15,2 11 6 18 10 Z 1012,1 60 0,0
13.10.2019 22:00:00 14,7 13,1 14,2 15,7 15,1 11 6 23 12 ZZW 1011,3 60 0,0
13.10.2019 21:00:00 15,0 13,2 14,2 15,9 15,2 16 9 30 16 WZW 1010,5 60 0,6
13.10.2019 20:00:00 15,2 13,2 14,3 16,2 15,2 18 10 47 26 WZW 1009,7 44 0,2
13.10.2019 19:00:00 16,0 14,2 15,3 16,3 15,1 25 13 59 32 WZW 1008,5 60 0,4
13.10.2019 18:00:00 20,7 15,5 19,6 16,3 15,2 32 17 58 31 ZZW 1006,7 38 0,0
13.10.2019 17:00:00 21,5 15,3 21,2 16,2 15,1 25 14 45 24 ZZW 1006,3 42 0,0
13.10.2019 16:00:00 21,8 15,2 21,9 16,1 15,2 32 18 53 29 ZZW 1006,3 36 0,0
13.10.2019 15:00:00 22,6 15,7 21,8 15,9 15,2 30 16 63 34 ZZW 1006,0 37 0,0
13.10.2019 14:00:00 22,5 15,6 22,1 15,5 15,1 31 17 57 31 Z 1005,4 31 0,0
13.10.2019 13:00:00 21,8 15,2 22,0 15,1 15,2 33 18 56 31 Z 1005,4 29 0,0
13.10.2019 12:00:00 20,4 15,2 19,7 14,8 15,2 25 14 46 25 Z 1005,6 34 0,0
13.10.2019 11:00:00 18,9 15,6 18,0 14,4 15,2 21 11 37 20 Z 1006,3 42 0,0
13.10.2019 10:00:00 17,5 15,5 16,5 14,2 15,2 18 10 37 20 Z 1006,6 32 0,0
13.10.2019 09:00:00 16,6 15,5 15,0 14,1 15,2 16 9 29 16 ZZO 1006,3 20 0,0
13.10.2019 08:00:00 15,3 15,0 14,6 14,1 15,2 9 5 17 9 Z 1006,5 10 0,0
13.10.2019 07:00:00 14,8 14,5 14,0 14,1 15,2 7 4 14 8 ZO 1007,2 5 0,8
13.10.2019 06:00:00 14,3 14,0 13,0 14,1 15,2 10 6 14 8 ZO 1007,0 5 0,0
13.10.2019 05:00:00 14,3 13,8 13,1 14,2 15,2 13 7 18 10 ZZO 1007,4 5 0,0
13.10.2019 04:00:00 14,7 13,7 13,9 14,3 15,2 11 6 18 10 Z 1008,0 7 0,0
13.10.2019 03:00:00 14,8 13,3 14,3 14,4 15,2 13 7 23 12 ZZO 1008,1 13 0,0
13.10.2019 02:00:00 15,0 13,0 14,3 14,5 15,2 14 7 23 13 Z 1008,7 19 0,0
13.10.2019 01:00:00 15,5 13,2 14,6 14,5 15,2 16 8 25 13 Z 1008,9 24 0,0
13.10.2019 00:00:00 15,3 13,1 14,3 14,6 15,2 14 7 22 12 Z 1009,2 19 0,0
12.10.2019 23:00:00 14,7 12,9 14,3 14,8 15,2 13 7 21 11 Z 1009,6 17 0,0
12.10.2019 22:00:00 15,2 13,2 14,8 15,0 15,2 14 8 25 13 ZZO 1009,2 20 0,0
12.10.2019 21:00:00 16,3 13,6 15,8 15,0 15,2 16 9 24 13 Z 1009,4 29 0,0
12.10.2019 20:00:00 16,3 13,2 15,7 15,2 15,2 13 7 31 17 ZZO 1009,3 38 0,0
12.10.2019 19:00:00 16,8 13,1 16,2 15,3 15,2 16 9 27 15 Z 1008,8 58 0,0
12.10.2019 18:00:00 17,9 13,2 17,8 15,3 15,2 22 12 30 16 Z 1009,1 53 0,0
12.10.2019 17:00:00 19,0 13,8 20,1 15,1 15,2 21 11 39 21 Z 1009,1 42 0,0
12.10.2019 16:00:00 19,1 13,3 19,3 14,8 15,2 26 14 45 25 ZZW 1009,6 43 0,0
12.10.2019 15:00:00 18,3 12,9 18,8 14,5 15,2 26 14 42 23 Z 1009,9 49 0,0
12.10.2019 14:00:00 18,1 13,0 18,3 14,3 15,2 23 12 41 22 ZZW 1010,4 44 0,0
12.10.2019 13:00:00 17,4 12,5 17,3 13,9 15,2 23 12 39 21 ZZW 1010,6 60 0,0
12.10.2019 12:00:00 17,0 12,5 17,5 13,6 15,2 19 11 37 20 ZZW 1010,2 33 0,0
12.10.2019 11:00:00 16,2 12,2 15,3 13,4 15,2 23 12 40 22 ZZW 1010,1 49 0,0
12.10.2019 10:00:00 14,4 11,5 13,7 13,3 15,2 24 13 37 20 Z 1009,8 38 0,0
12.10.2019 09:00:00 13,4 11,1 12,7 13,3 15,2 21 12 39 21 Z 1009,5 40 0,0
12.10.2019 08:00:00 13,0 10,9 12,4 13,3 15,2 22 12 37 20 Z 1008,8 56 0,0
12.10.2019 07:00:00 13,1 11,0 12,3 13,4 15,2 18 10 37 20 Z 1008,9 55 0,0
12.10.2019 06:00:00 13,3 11,0 12,6 13,5 15,2 22 12 33 18 Z 1008,8 58 0,0
12.10.2019 05:00:00 13,4 11,1 12,7 13,6 15,2 19 11 31 17 ZZW 1008,9 60 0,0
12.10.2019 04:00:00 13,8 11,0 13,2 13,8 15,3 19 10 31 17 ZZW 1008,9 60 0,0
12.10.2019 03:00:00 14,3 11,1 13,6 13,9 15,3 20 11 31 17 ZZW 1008,9 60 0,0
12.10.2019 02:00:00 15,1 11,3 14,5 14,0 15,3 23 12 46 25 Z 1008,9 60 0,0
12.10.2019 01:00:00 16,5 11,6 15,3 14,1 15,3 27 15 43 23 Z 1008,8 60 0,0
12.10.2019 00:00:00 16,0 12,2 15,3 14,1 15,3 24 13 40 21 Z 1009,1 60 0,0
11.10.2019 23:00:00 16,7 12,2 16,3 14,2 15,3 22 12 46 25 Z 1009,8 60 0,0
11.10.2019 22:00:00 17,0 12,1 16,6 14,2 15,3 29 16 44 24 Z 1009,7 60 0,0
11.10.2019 21:00:00 17,0 12,1 16,5 14,2 15,3 30 16 49 27 Z 1009,7 60 0,0
11.10.2019 20:00:00 16,8 12,3 16,4 14,2 15,3 26 14 48 26 Z 1010,1 60 0,0
11.10.2019 19:00:00 16,8 12,5 16,5 14,2 15,3 29 16 51 27 ZZW 1010,3 60 0,0
11.10.2019 18:00:00 16,9 12,6 16,8 14,2 15,3 31 17 60 32 ZZW 1010,3 60 0,0
11.10.2019 17:00:00 17,0 12,5 17,0 14,0 15,3 35 19 53 29 Z 1010,4 41 0,0
11.10.2019 16:00:00 16,9 12,0 17,0 13,9 15,3 34 19 58 31 ZZW 1010,8 44 0,0
11.10.2019 15:00:00 16,7 11,6 17,0 13,6 15,3 35 19 56 30 Z 1011,2 33 0,0
11.10.2019 14:00:00 15,9 11,7 15,6 13,4 15,3 36 19 59 32 ZZW 1012,1 31 0,0
11.10.2019 13:00:00 15,3 11,7 15,1 13,3 15,3 32 18 54 29 Z 1012,9 60 0,0
11.10.2019 12:00:00 15,2 11,6 14,5 13,0 15,3 34 18 55 30 Z 1013,0 41 0,0
11.10.2019 11:00:00 14,2 11,4 14,1 12,9 15,3 34 19 50 27 ZZW 1013,4 38 0,0
11.10.2019 10:00:00 13,8 11,1 13,3 12,7 15,3 28 15 47 26 Z 1013,3 48 0,0
11.10.2019 09:00:00 13,3 10,7 12,8 12,7 15,4 24 13 38 20 Z 1013,3 56 0,0
11.10.2019 08:00:00 12,9 10,4 12,7 12,7 15,4 24 13 45 24 Z 1013,3 42 0,0
11.10.2019 07:00:00 13,0 10,4 12,4 12,7 15,4 26 14 40 22 ZZW 1013,7 50 0,0
11.10.2019 06:00:00 12,5 9,7 12,2 12,6 15,4 22 12 39 21 Z 1014,3 53 0,0
11.10.2019 05:00:00 12,5 9,3 12,3 12,7 15,4 23 12 37 20 ZZW 1014,4 52 0,0
11.10.2019 04:00:00 12,6 9,1 12,2 12,7 15,4 22 12 35 19 ZZW 1014,7 52 0,0
11.10.2019 03:00:00 12,6 8,7 12,2 12,7 15,4 19 11 36 19 Z 1014,9 56 0,0
11.10.2019 02:00:00 12,8 8,3 12,5 12,8 15,4 20 11 36 19 Z 1015,4 59 0,0
11.10.2019 01:00:00 13,2 8,3 12,4 12,9 15,4 22 12 35 19 ZZW 1015,6 59 0,0
11.10.2019 00:00:00 12,5 8,4 11,4 13,0 15,4 18 10 29 16 Z 1015,6 60 0,0
10.10.2019 23:00:00 12,1 8,2 11,3 13,2 15,4 16 9 27 14 Z 1016,2 58 0,0
10.10.2019 22:00:00 12,7 8,4 12,0 13,4 15,4 18 10 29 16 ZZW 1016,3 57 0,0
10.10.2019 21:00:00 14,2 8,4 13,6 13,6 15,4 19 10 30 16 ZZW 1016,2 59 0,0
10.10.2019 20:00:00 14,5 8,7 13,9 13,7 15,4 18 10 29 15 ZZW 1016,0 58 0,0
10.10.2019 19:00:00 14,9 8,4 14,5 13,8 15,5 20 11 39 21 ZW 1016,0 55 0,0
10.10.2019 18:00:00 15,4 9,7 13,4 13,9 15,4 19 10 38 20 WZW 1015,7 37 0,0
10.10.2019 17:00:00 15,5 9,4 14,0 13,8 15,5 29 16 44 24 WZW 1015,8 19 0,0
10.10.2019 16:00:00 17,2 8,3 16,2 13,5 15,5 33 18 50 27 WZW 1015,7 33 0,0
10.10.2019 15:00:00 15,8 8,8 14,5 13,2 15,5 19 10 36 20 WZW 1015,5 41 0,2
10.10.2019 14:00:00 15,3 9,0 15,5 12,8 15,5 22 12 41 22 WZW 1015,4 30 0,0
10.10.2019 13:00:00 15,2 10,4 15,7 12,2 15,5 23 13 39 21 ZW 1015,2 19 0,0
10.10.2019 12:00:00 13,7 9,7 13,6 11,8 15,5 22 12 36 19 ZW 1015,1 18 0,0
10.10.2019 11:00:00 12,7 9,1 13,0 11,5 15,5 17 9 33 18 ZW 1014,6 32 0,0
10.10.2019 10:00:00 11,3 9,2 9,5 11,4 15,5 18 10 29 15 ZZW 1014,0 56 0,0
10.10.2019 09:00:00 9,4 8,3 7,8 11,5 15,5 14 7 21 11 ZZW 1013,0 33 0,0
10.10.2019 08:00:00 8,5 7,4 7,6 11,7 15,5 13 7 20 11 ZZW 1012,0 35 0,0
10.10.2019 07:00:00 8,4 7,5 7,6 11,9 15,5 15 8 27 15 ZZW 1011,2 46 0,0
10.10.2019 06:00:00 8,8 7,7 8,0 12,0 15,5 16 8 26 14 ZW 1010,6 56 0,0
10.10.2019 05:00:00 9,1 8,0 8,4 12,2 15,5 18 10 31 17 ZZW 1009,7 55 0,0
10.10.2019 04:00:00 10,0 8,6 9,1 12,3 15,5 18 10 31 17 ZW 1009,2 60 0,0
10.10.2019 03:00:00 9,9 8,8 8,9 12,4 15,5 21 11 33 18 ZZW 1008,6 56 0,0
10.10.2019 02:00:00 9,7 8,8 9,0 12,5 15,5 14 8 33 18 Z 1008,5 60 0,8
10.10.2019 01:00:00 10,0 8,8 9,4 12,6 15,5 21 12 30 16 ZZW 1008,8 4,0 2,0
10.10.2019 00:00:00 10,2 8,8 9,5 12,7 15,5 21 12 43 23 ZZW 1008,2 60 0,2
09.10.2019 23:00:00 10,7 9,3 9,8 12,8 15,6 27 15 40 22 ZZW 1008,5 12 0,8
09.10.2019 22:00:00 10,4 9,0 9,8 12,9 15,5 21 11 48 26 ZZW 1008,9 16 1,8
09.10.2019 21:00:00 10,8 8,6 9,6 13,0 15,5 27 14 44 24 ZZW 1008,8 59 0,2

tt = temperatuur
td = dauwpunt
tt 5cm = temperatuur 5cm
tt -20cm = temperatuur -20cm
tt -100cm = temperatuur -100cm
ff = windsnelheid
fx = windstoten
dd = windrichting
ppp = luchtdruk
vv = zicht
rr = neerslag

Weerstations in de omgeving